Regional Weather Roundup
Issued by NWS Wakefield, VA

Home | Current Version | Previous Version | Graphics & Text | Print | Product List | Glossary On
Versions: 1 2 3 4 5 6 7 8 9 10 11 12 13 14 15 16 17 18 19 20 21 22 23 24 25 26 27 28
000
ASUS41 KAKQ 291515
RWRAKQ

REGIONAL WEATHER ROUNDUP
NATIONAL WEATHER SERVICE WAKEFIELD VA
1100 AM EDT SUN MAY 29 2016

Note: "fair" indicates few or no clouds below 12,000 feet with no
significant weather and/or obstructions to visibility. * = Denotes
station may not report precipitation (e.g., rain,snow,etc.),
thunder or fog.

VAZ042-051-052>054-056-291600-
NORTHERN VIRGINIA

CITY           SKY/WX    TMP DP  RH WIND       PRES   REMARKS
WASH NATIONAL  PTSUNNY   77  68  73 S8        30.15S
DULLES         PTSUNNY   79  65  62 SW7       30.14F
FORT BELVOIR   FAIR      79  66  64 S7        30.14S
QUANTICO       FAIR      76  68  76 S5        30.14F
FREDERICKSBRG* FAIR      80  67  65 CALM      30.12F
STAFFORD*      FAIR      80  66  63 SE5       30.18S
WARRENTON      FAIR      81  64  55 CALM      30.14S
CULPEPER*      FAIR      79  66  65 SW3       30.15S
MANASSAS*      SUNNY     79  66  65 SW3       30.14S
LEESBURG*      FAIR      81  68  65 SW3       30.15S
WINCHESTER     FAIR      79  63  57 S3        30.15S
FRONT ROYAL*   FAIR      77  66  69 CALM      30.14S
LURAY*         FAIR      77  64  65 CALM      30.15F
$$

VAZ048-049-060>072-079>083-291600-
CENTRAL AND SOUTH CENTRAL VIRGINIA

CITY           SKY/WX    TMP DP  RH WIND       PRES   REMARKS
RICHMOND       PTSUNNY   78  68  71 E3        30.13S
CHESTERFIELD*  FAIR      81  57  44 E7        30.15S
PETERSBURG*    PTSUNNY   80  67  65 E5        30.13S
HANOVER        FAIR      80  65  59 CALM      30.15S
TAPPAHANNOCK*  CLOUDY    78  69  73 SE5       30.15S
QUINTON*       PTSUNNY   78  70  75 CALM      30.13S
CHARLOTTSVILLE FAIR      79  63  57 CALM      30.14F
GORDONSVILLE*  FAIR      79  68  68 S5        30.13F
ORANGE*        FAIR      81  66  61 CALM      30.15F
LOUISA*        FAIR      81  72  74 CALM      30.13F
BUMPASS*       PTSUNNY   78  69  72 CALM      30.14S
FARMVILLE*     CLOUDY    79  69  71 CALM      30.13F
CREWE*         PTSUNNY   77  67  70 CALM      30.13F
FORT PICKETT*  NOT AVBL
CHASE CITY*    PTSUNNY   77  67  72 CALM      30.13F
CLARKSVILLE*   CLOUDY    73  72  94 CALM      30.12F
SOUTH HILL*    CLOUDY    73  70  89 CALM      30.18F
LAWRENCEVILLE* CLOUDY    77  71  83 CALM      30.12F
EMPORIA*       LGT RAIN  73  72  94 NE3       30.13F
$$

VAZ088>098-291600-
SOUTHEAST VIRGINIA

CITY           SKY/WX    TMP DP  RH WIND       PRES   REMARKS
NORFOLK        CLOUDY    80  71  74 SE7       30.12F
VIRGINIA BEACH PTSUNNY   83  72  69 SE13      30.12F
NORFOLK NAVAL  PTSUNNY   80  71  74 NE7       30.13F
WEST POINT*    FAIR      80  71  73 E3        30.15F
SALUDA*        CLOUDY    74  72  93 E9        30.13F
NEWPORT NEWS   CLOUDY    78  72  81 E9        30.12F
LANGLEY AFB    FAIR      78  72  83 E8        30.12F
FORT EUSTIS    PTSUNNY   79  67  67 VRB5      30.11F
WILLIAMSBURG*  FAIR      82  72  69 CALM      30.13F
HR EXEC AP*    PTSUNNY   79  72  78 SE9       30.14S
FRANKLIN*      DRIZZLE   76  71  84 E3        30.12F
US460-WAKEFLD  LGT RAIN  77  71  82 CALM      30.12F
$$

VAZ020-022-025-037-045-291600-
WEST CENTRAL AND SOUTHWEST VIRGINIA

CITY           SKY/WX    TMP DP  RH WIND       PRES   REMARKS
STAUNTON*      FAIR      76  61  61 S6        30.18S
WAYNESBORO*    FAIR      75  59  57 SW3       30.18S
HOT SPRINGS VA CLOUDY    67  56  67 W3        30.26S
LYNCHBURG      CLOUDY    71  65  81 N3        30.17F
DANVILLE       LGT RAIN  72  67  84 NE5       30.14F
SOUTH BOSTON*  CLOUDY    71  70  95 N5        30.13F
MARTINSVILLE   LGT RAIN  67  62  84 NW3       30.18F
ROANOKE        CLOUDY    74  64  71 VRB3      30.18F
BLACKSBURG     CLOUDY    70  62  77 W3        30.22F
DUBLIN*        CLOUDY    70  64  81 NW3       30.21F
MARION*        CLOUDY    67  63  85 E3        30.23F
HILLSVILLE*    CLOUDY    67  60  77 CALM      30.21F
RICHLANDS*     CLOUDY    66  65  96 W3        30.23S
WISE*          CLOUDY    72  54  53 E3        30.23S
ABINGDON*      FAIR      72  59  63 CALM      30.20F
$$

MDZ021>025-VAZ099-100-291600-
SOUTHERN MARYLAND AND THE DELMARVA PENINSULA

CITY           SKY/WX    TMP DP  RH WIND       PRES   REMARKS
PATUXENT RIVER PTSUNNY   74  69  85 SE9       30.14F
BAY BRIDGE APT MOSUNNY   75  70  83 W5        30.15S
LEONARDTOWN    PTSUNNY   77  68  73 E5        30.16S
DOVER          SUNNY     77  73  87 E9        30.15S
GEORGETOWN     PTSUNNY   79  69  71 S7        30.16S
EASTON         MOSUNNY   82  68  61 SE7       30.18
CAMBRIDGE      PTSUNNY   79  68  69 SE9       30.14F
SALISBURY      PTSUNNY   79  69  71 S7        30.15F
OCEAN CITY     CLOUDY    72  68  87 SE7       30.17S
WALLOPS ISLAND PTSUNNY   78  71  79 SE12      30.16F
ACCOMACK*      PTSUNNY   79  70  73 E5        30.15S
$$

NCZ012>017-030>032-291600-
NORTH CENTRAL AND EASTERN NORTH CAROLINA

CITY           SKY/WX    TMP DP  RH WIND       PRES   REMARKS
ROANOKE RAPIDS RAIN      73  72  94 NE5       30.11F
RALEIGH        LGT RAIN  72  70  93 NE7       30.10F FOG
ELIZABETH CITY RAIN      76  72  87 SE13      30.13R FOG
AHOSKIE*       LGT RAIN  72  71  96 NE3       30.12S
EDENTON*       LGT RAIN N/A N/A N/A SE10G20   30.12S
CURRITUCK*     CLOUDY    80  73  81 SE3       30.14R
KILL DEVIL HLS CLOUDY    79  71  75 SE7       30.12S
MANTEO         NOT AVBL
CAPE HATTERAS  SUNNY     82  73  74 SE12      30.11S
TARBORO*       RAIN      75  73  93 CALM      30.11S
GOLDSBORO      PTSUNNY   73  73 100 NE7       30.06F
WASHINGTON     LGT RAIN  73  71  94 SE3       30.10R
GREENVILLE     LGT RAIN  73  73 100 E5        30.11S
NEW BERN       CLOUDY    77  73  87 VRB3      30.09S
WILMINGTON     PTSUNNY   81  72  74 SE16G23   30.04S
$$

VAZ048-291600-
ELSEWHERE

CITY           SKY/WX    TMP DP  RH WIND       PRES   REMARKS
HARRISBURG PA  PTSUNNY   80  64  58 VRB3      30.13S
BALTIMORE      PTSUNNY   80  64  58 VRB3      30.13F
ANNAPOLIS      SUNNY     71  68  90 SE12      30.14S
ANDREWS AFB    FAIR      79  67  64 S6        30.14S
PHILADELPHIA   MOSUNNY   79  61  53 SW8       30.15F
HENDERSON NC   CLOUDY    69  68  95 N3        30.12F
GREENSBORO     CLOUDY    68  65  90 N5        30.14S
ROCKY MOUNT    LGT RAIN  73  72  96 NE5       30.09F FOG
$$

VAZ100-291600-
MARINE

STATION/POSITION TIME  TEMP    WIND        PRES    WAVE   SWELL
                       AIR SEA DIR/SP/G            HT/PER HT/PER
                 (UTC) (F)     (DEG/KT/KT) (MB)    (FT/S) (FT/S)
BRANDYWINE LGT   1400   63     150/  9/ 10 1021.7S
CAPE MAY NJ      1400   72 68  120/  6/  8 1021.4F
LEWES DE         1400   72 64  130/  7/  9 1021.3F
15NM E FENWICK I 1450   65 64              1021.7R   3/ 7
OCEAN-CITY-INLET 1400   67 67  140/  4/  6 1021.9S
WACHAPREAGUE VA  1400   74 77  110/  5/  7 1020.9R
THOMAS POINT MD  1500   70 67  160/  3/  4 1022.3R
GOOSES REEF MD   1500   72 70  180/  6/  8 1022.0S   2
COVE POINT MD    1400   69     180/  5/  5 1021.7R
SOLOMONS ISLAND  1400   70 67   70/  8/  8   N/A
BISHOPS HEAD MD  1400   72 73  150/  5/  6 1021.2R
PINEY POINT MD   1400          150/  9/  9   N/A
POTOMAC MD       1500   71 71  100/  6/  8 1019.8F   0
CAMBRIDGE MD     1400   74 67   70/  3/  3 1020.1S
LEWISETTA VA     1400   70 67  110/  9/ 10 1020.5S
RAPPAHANNOCK LGT 1400          120/  5/  6 1021.4R
STINGRAY PT      1500   74 71   80/  2/  2 1021.0F   0
YORK RVR RNG VA  1400   72     110/  6/  7 1020.1S
YORKTOWN VA      1400   72 71   80/  8/ 11 1020.4R
JAMESTOWN VA     1500   77 74  110/  4/  6   N/A     0
DOMINION TERM VA 1400   73      70/  9/ 11 1020.4S
KIPTOPEKE VA     1400      69  130/  7/ 11   N/A
CHES BAY BRIDGE  1400   71 69   70/  9/ 10 1020.5S
CAPE HENRY VA    1400   72     130/  5/  8   N/A
CHESAPEAKE LGHT  1400   71     110/ 13/ 13 1021.3F
WILLOUBY STN VA  1400   70      60/  8/  9 1021.4R
CAPE HENRY BUOY  1412      69                N/A     3/ 7
1ST LANDING BUOY 1500   71 71  100/  6/  8 1020.3F   2/ 4
CAPE CHARLES BUO 1426      68                N/A     3/ 8   2/ 8
OFFSHORE WE BUOY 1421      71                N/A     3/ 7   3/ 7
64NM E OF VA BCH 1450   70 64  120/  6/  6 1020.8F   4/ 8   3/ 8
DUCK PIER NC     1400   73 62  110/ 12/ 13 1019.5F
44100 DUCK FRF   1424      70                N/A     3/ 6
44056 DUCK FRF   1411      69                N/A     3/ 8
OREGON INLET NC  1400   77 70  120/  9/ 12 1019.9F
HATTERAS NC      1400   78 76  140/ 12/ 15 1018.9S
DIAMOND SHLS NC  1450   79 76  150/ 17/ 19 1019.3R   6/ 8   2/12
CAPE LOOKOUT C1F1C2F2C3F3C4F4C5F5C6F6C7F7C8M1C9!



USA.gov is the U.S. government's official web portal to all federal, state and local government web resources and services.